Flagstaff, AZ

3:46 PM MST on February 19, 2018 (GMT -0700)
Flagstaff Pulliam

Weather History for KFLG - March, 2013

Change the Weather History Date:

Tuesday, March 5, 2013

  Actual Average Record
Temperature  
Mean Temperature 37 °F 35 °F  
Max Temperature 53 °F 48 °F 68 °F (1910)
Min Temperature 20 °F 22 °F -5 °F (1948)
Degree Days  
Heating Degree Days 28 30  
Month to date heating degree days 131 151  
Since 1 July heating degree days 4999 4990  
Cooling Degree Days 0 0  
Month to date cooling degree days 0 0  
Year to date cooling degree days 0 0  
Moisture  
Dew Point 19 °F    
Average Humidity 59    
Maximum Humidity 91    
Minimum Humidity 26    
Precipitation  
Precipitation 0.00 in 0.08 in 0.77 in (1907)
Month to date precipitation 0.00 0.39  
Year to date precipitation 3.50 4.60  
Snow  
Snow 0.00 in 0.70 in 7.00 in (2004)
Month to date snowfall 0.0 3.7  
Since 1 July snowfall 53.1 76.9  
Snow Depth 0.00 in    
Sea Level Pressure  
Sea Level Pressure 30.14 in    
Wind  
Wind Speed 3 mph (SSW)    
Max Wind Speed 16 mph    
Max Gust Speed 20 mph    
Visibility 10 miles    
Events      
T = Trace of Precipitation, MM = Missing Value Source: NWS Daily Summary

Daily Weather History Graph

Daily Weather History Graph

Search for Another Location

Airport or City:

Trip Planner

Search our weather history database for the weather conditions in past years. The results will help you decide how hot, cold, wet, or windy it might be!

Date:

Astronomy

Mar. 05, 2013 Rise Set
Actual Time 6:50 AM MST 6:26 PM MST
Civil Twilight 6:25 AM MST 6:51 PM MST
Nautical Twilight 5:55 AM MST 7:20 PM MST
Astronomical Twilight 5:26 AM MST 7:50 PM MST
Moon 1:56 AM MST (3/5) 12:18 PM MST (3/5)
Length of Visible Light 12h 26m
Length of Day
11h 35m
Last Quarter, 40% of the Moon is Illuminated
Mar 5
Last Quarter
Mar 11
New
Mar 19
First Quarter
Mar 27
Full
Apr 2
Last Quarter

Hourly Weather History & Observations

Time (MST) Temp. Windchill Dew Point Humidity Pressure Visibility Wind Dir Wind Speed Gust Speed Precip Events Conditions
12:57 AM 25.0 °F - 19.0 °F 78% 30.14 in 10.0 mi Calm Calm - N/A   Clear
1:57 AM 24.1 °F - 19.0 °F 81% 30.14 in 10.0 mi Calm Calm - N/A   Clear
2:57 AM 23.0 °F - 18.0 °F 81% 30.13 in 10.0 mi Calm Calm - N/A   Clear
3:57 AM 21.0 °F - 18.0 °F 88% 30.14 in 10.0 mi Calm Calm - N/A   Clear
4:57 AM 21.0 °F - 18.0 °F 88% 30.14 in 10.0 mi Calm Calm - N/A   Clear
5:57 AM 19.9 °F - 17.1 °F 89% 30.18 in 10.0 mi Calm Calm - N/A   Clear
6:57 AM 19.9 °F - 17.1 °F 89% 30.22 in 10.0 mi Calm Calm - N/A   Clear
7:57 AM 26.1 °F - 21.9 °F 84% 30.21 in 10.0 mi Calm Calm - N/A   Clear
8:46 AM 37.4 °F - 23.0 °F 56% 30.27 in 10.0 mi Calm Calm - N/A   Partly Cloudy
8:57 AM 39.9 °F - 23.0 °F 51% 30.20 in 10.0 mi Calm Calm - N/A   Partly Cloudy
9:57 AM 45.0 °F 41.2 °F 17.1 °F 33% 30.19 in 10.0 mi East 6.9 mph - N/A   Clear
10:57 AM 46.9 °F - 15.1 °F 28% 30.18 in 10.0 mi Variable 3.5 mph - N/A   Clear
11:57 AM 48.9 °F - 15.1 °F 26% 30.16 in 10.0 mi ESE 9.2 mph 16.1 mph N/A   Clear
12:57 PM 51.1 °F - 17.1 °F 26% 30.13 in 10.0 mi SSE 5.8 mph - N/A   Clear
1:57 PM 52.0 °F - 19.9 °F 28% 30.10 in 10.0 mi SW 10.4 mph 17.3 mph N/A   Clear
2:57 PM 51.1 °F - 21.9 °F 32% 30.09 in 10.0 mi SW 8.1 mph - N/A   Clear
3:57 PM 50.0 °F - 21.9 °F 33% 30.10 in 10.0 mi SW 11.5 mph - N/A   Clear
4:57 PM 50.0 °F - 19.9 °F 31% 30.10 in 10.0 mi SW 10.4 mph - N/A   Clear
5:57 PM 48.0 °F - 19.9 °F 33% 30.12 in 10.0 mi SSW 9.2 mph - N/A   Clear
6:57 PM 39.0 °F - 19.0 °F 45% 30.16 in 10.0 mi Calm Calm - N/A   Clear
7:57 PM 36.0 °F - 19.0 °F 50% 30.15 in 10.0 mi Calm Calm - N/A   Clear
8:57 PM 32.0 °F - 21.0 °F 64% 30.09 in 10.0 mi Calm Calm - N/A   Clear
9:57 PM 28.9 °F - 19.9 °F 69% 30.08 in 10.0 mi Calm Calm - N/A   Clear
10:57 PM 28.9 °F - 19.9 °F 69% 30.06 in 10.0 mi Calm Calm - N/A   Clear
11:57 PM 28.9 °F - 21.0 °F 72% 30.04 in 10.0 mi Calm Calm - N/A   Clear